Augusta, ME

3:13 PM EST on February 20, 2018 (GMT -0500)
Augusta State

Weather History for KAUG - December, 2013

Change the Weather History Date:

Friday, December 27, 2013

  Actual Average Record
Temperature  
Mean Temperature 22 °F 22 °F  
Max Temperature 28 °F 30 °F 51 °F (1969)
Min Temperature 15 °F 14 °F -9 °F (1993)
Degree Days  
Heating Degree Days 44 43  
Month to date heating degree days 1034  
Since 1 July heating degree days 2582  
Cooling Degree Days 0 0  
Month to date cooling degree days 0  
Year to date cooling degree days 388  
Moisture  
Dew Point 18 °F    
Average Humidity 85    
Maximum Humidity 92    
Minimum Humidity 81    
Precipitation  
Precipitation 0.00 in 0.09 in 2.09 in (1969)
Month to date precipitation 2.89  
Year to date precipitation 41.53  
Sea Level Pressure  
Sea Level Pressure 30.16 in    
Wind  
Wind Speed 4 mph (WSW)    
Max Wind Speed 7 mph    
Max Gust Speed -    
Visibility 10 miles    
Events      
T = Trace of Precipitation, MM = Missing Value Source: NWS Daily Summary

Daily Weather History Graph

Daily Weather History Graph

Search for Another Location

Airport or City:

Trip Planner

Search our weather history database for the weather conditions in past years. The results will help you decide how hot, cold, wet, or windy it might be!

Date:

Astronomy

Dec. 27, 2013 Rise Set
Actual Time 7:14 AM EST 4:06 PM EST
Civil Twilight 6:40 AM EST 4:39 PM EST
Nautical Twilight 6:04 AM EST 5:16 PM EST
Astronomical Twilight 5:28 AM EST 5:52 PM EST
Moon 1:34 AM EST (12/27) 12:22 PM EST (12/27)
Length of Visible Light 9h 58m
Length of Day
8h 52m
Waning Crescent, 28% of the Moon is Illuminated
Dec 27
Waning Crescent
Jan 1
New
Jan 7
First Quarter
Jan 15
Full
Jan 24
Last Quarter

Hourly Weather History & Observations

Time (EST) Temp. Windchill Dew Point Humidity Pressure Visibility Wind Dir Wind Speed Gust Speed Precip Events Conditions
12:53 AM 17.1 °F 8.7 °F 12.9 °F 84% 30.14 in 10.0 mi WNW 5.8 mph - N/A   Clear
1:53 AM 15.1 °F 7.7 °F 12.0 °F 88% 30.14 in 10.0 mi WNW 4.6 mph - N/A   Clear
2:53 AM 17.1 °F 10.0 °F 12.9 °F 84% 30.15 in 10.0 mi WNW 4.6 mph - N/A   Clear
3:53 AM 17.1 °F 8.7 °F 12.9 °F 84% 30.16 in 10.0 mi WNW 5.8 mph - N/A   Scattered Clouds
4:53 AM 19.0 °F - 15.1 °F 85% 30.16 in 10.0 mi Calm Calm - N/A   Overcast
5:53 AM 16.0 °F 10.4 °F 12.9 °F 88% 30.16 in 10.0 mi SSW 3.5 mph - N/A   Overcast
6:30 AM 18.0 °F - 14.0 °F 84% 30.15 in 2.5 mi Calm Calm - N/A   Overcast
6:37 AM 18.0 °F - 14.0 °F 84% 30.16 in 10.0 mi Calm Calm - N/A   Overcast
6:53 AM 19.0 °F - 15.1 °F 85% 30.17 in 10.0 mi Calm Calm - N/A   Overcast
7:53 AM 19.0 °F 13.9 °F 15.1 °F 85% 30.19 in 10.0 mi West 3.5 mph - N/A   Overcast
8:53 AM 21.0 °F 16.2 °F 17.1 °F 85% 30.19 in 10.0 mi South 3.5 mph - N/A   Mostly Cloudy
9:53 AM 19.0 °F - 17.1 °F 92% 30.19 in 6.0 mi Calm Calm - N/A   Partly Cloudy
10:53 AM 25.0 °F 19.3 °F 19.9 °F 81% 30.17 in 10.0 mi WNW 4.6 mph - N/A   Scattered Clouds
11:53 AM 27.0 °F 21.6 °F 21.9 °F 81% 30.15 in 10.0 mi WSW 4.6 mph - N/A   Overcast
12:53 PM 27.0 °F 19.5 °F 21.9 °F 81% 30.13 in 10.0 mi SW 6.9 mph - N/A   Overcast
1:53 PM 28.0 °F 20.8 °F 24.1 °F 85% 30.13 in 10.0 mi SW 6.9 mph - N/A   Partly Cloudy
2:53 PM 28.0 °F 20.8 °F 23.0 °F 81% 30.14 in 10.0 mi WSW 6.9 mph - N/A   Scattered Clouds
3:53 PM 27.0 °F - 24.1 °F 89% 30.13 in 9.0 mi Calm Calm - N/A   Clear
4:53 PM 26.1 °F 21.9 °F 23.0 °F 88% 30.14 in 10.0 mi SSW 3.5 mph - N/A   Overcast
5:53 PM 25.0 °F 17.1 °F 21.9 °F 88% 30.16 in 10.0 mi SW 6.9 mph - N/A   Mostly Cloudy
6:53 PM 24.1 °F 16.0 °F 19.9 °F 84% 30.17 in 10.0 mi WSW 6.9 mph - N/A   Scattered Clouds
7:53 PM 23.0 °F 17.0 °F 19.9 °F 88% 30.17 in 10.0 mi SW 4.6 mph - N/A   Scattered Clouds
8:53 PM 23.0 °F 15.8 °F 19.0 °F 85% 30.17 in 10.0 mi WSW 5.8 mph - N/A   Clear
9:53 PM 23.0 °F 14.7 °F 19.0 °F 85% 30.18 in 10.0 mi WSW 6.9 mph - N/A   Mostly Cloudy
10:53 PM 21.0 °F - 18.0 °F 88% 30.18 in 10.0 mi Calm Calm - N/A   Mostly Cloudy
11:53 PM 19.9 °F - 17.1 °F 89% 30.16 in 10.0 mi Calm Calm - N/A   Clear